Oceana NAS, VA

12:32 PM EDT on May 26, 2018 (GMT -0400)
Oceana Naval Air Station

Weather History for KNTU - March, 2014

Change the Weather History Date:

Tuesday, March 25, 2014

  Actual Average Record
Temperature  
Mean Temperature 38 °F -  
Max Temperature 48 °F 59 °F 87 °F (2016)
Min Temperature 30 °F 41 °F 28 °F (2009)
Degree Days  
Heating Degree Days 27    
Moisture  
Dew Point 33 °F    
Average Humidity 79    
Maximum Humidity 93    
Minimum Humidity 52    
Precipitation  
Precipitation 0.94 in - - ()
Sea Level Pressure  
Sea Level Pressure 29.87 in    
Wind  
Wind Speed 11 mph (NE)    
Max Wind Speed 23 mph    
Max Gust Speed 31 mph    
Visibility 6 miles    
Events Rain , Snow    
Averages and records for this station are not official NWS values.
T = Trace of Precipitation, MM = Missing Value Source: NWS Daily Summary

Daily Weather History Graph

Daily Weather History Graph

Search for Another Location

Airport or City:

Astronomy

Mar. 25, 2014 Rise Set
Actual Time 7:00 AM EDT 7:20 PM EDT
Civil Twilight 6:34 AM EDT 7:46 PM EDT
Nautical Twilight 6:04 AM EDT 8:16 PM EDT
Astronomical Twilight 5:33 AM EDT 8:47 PM EDT
Moon 3:12 AM EDT (3/25) 1:55 PM EDT (3/25)
Length of Visible Light 13h 11m
Length of Day
12h 20m
Waning Crescent, 32% of the Moon is Illuminated
Mar 25
Waning Crescent
Mar 30
New
Apr 7
First Quarter
Apr 15
Full
Apr 22
Last Quarter

Hourly Weather History & Observations

Time (EDT) Temp. Windchill Dew Point Humidity Pressure Visibility Wind Dir Wind Speed Gust Speed Precip Events Conditions
12:56 AM 32.0 °F 28.7 °F 23.0 °F 69% 30.17 in 10.0 mi ESE 3.5 mph - N/A   Scattered Clouds
1:56 AM 30.9 °F 26.2 °F 23.0 °F 72% 30.15 in 10.0 mi SE 4.6 mph - N/A   Scattered Clouds
2:56 AM 33.1 °F 27.7 °F 21.9 °F 64% 30.12 in 10.0 mi ESE 5.8 mph - N/A   Scattered Clouds
3:56 AM 33.1 °F 26.9 °F 23.0 °F 66% 30.10 in 10.0 mi ESE 6.9 mph - N/A   Mostly Cloudy
4:56 AM 37.0 °F 31.6 °F 24.1 °F 59% 30.08 in 10.0 mi SE 6.9 mph - N/A   Mostly Cloudy
5:56 AM 37.9 °F 32.1 °F 25.0 °F 60% 30.06 in 10.0 mi ESE 8.1 mph - N/A   Overcast
6:56 AM 39.9 °F 35.1 °F 26.1 °F 58% 30.07 in 10.0 mi SE 6.9 mph - N/A   Overcast
7:56 AM 42.1 °F 37.1 °F 28.0 °F 58% 30.06 in 10.0 mi ESE 8.1 mph - N/A   Mostly Cloudy
8:56 AM 45.0 °F 38.5 °F 28.0 °F 52% 30.04 in 10.0 mi ESE 13.8 mph - N/A   Mostly Cloudy
9:56 AM 45.0 °F 38.5 °F 32.0 °F 60% 29.99 in 10.0 mi East 13.8 mph - N/A   Overcast
10:56 AM 46.9 °F - 32.0 °F 56% 29.97 in 10.0 mi East 13.8 mph - N/A   Mostly Cloudy
11:49 AM 45.0 °F 39.7 °F 33.1 °F 63% 29.94 in 9.0 mi East 10.4 mph - 0.00 in Rain Light Rain
11:56 AM 45.0 °F 39.3 °F 34.0 °F 65% 29.95 in 9.0 mi East 11.5 mph - 0.00 in Rain Light Rain
12:30 PM 43.0 °F 38.2 °F 36.0 °F 76% 29.91 in 5.0 mi NE 8.1 mph - 0.02 in Rain Light Rain
12:56 PM 43.0 °F 38.8 °F 37.9 °F 82% 29.89 in 5.0 mi NE 6.9 mph - 0.06 in Rain Light Rain
1:56 PM 44.1 °F 42.5 °F 39.9 °F 85% 29.83 in 5.0 mi Variable 3.5 mph - 0.10 in Rain Light Rain
2:56 PM 44.1 °F 39.0 °F 39.9 °F 85% 29.77 in 10.0 mi NE 9.2 mph - 0.00 in   Overcast
3:08 PM 44.1 °F 38.6 °F 39.0 °F 82% 29.75 in 10.0 mi NE 10.4 mph - 0.00 in Rain Light Rain
3:24 PM 44.1 °F 38.1 °F 39.0 °F 82% 29.74 in 6.0 mi NNE 11.5 mph - 0.01 in Rain Light Rain
3:33 PM 43.0 °F 36.0 °F 39.0 °F 86% 29.74 in 5.0 mi NNE 13.8 mph - 0.03 in Rain Light Rain
3:43 PM 42.1 °F 34.5 °F 39.0 °F 89% 29.74 in 4.0 mi NNE 15.0 mph - 0.04 in Rain Light Rain
3:56 PM 41.0 °F 33.1 °F 37.9 °F 89% 29.75 in 3.0 mi NNE 15.0 mph - 0.07 in Rain Rain
4:14 PM 41.0 °F 31.4 °F 37.9 °F 89% 29.73 in 2.0 mi NNE 21.9 mph 28.8 mph 0.06 in Rain Rain
4:38 PM 39.0 °F 29.6 °F 37.0 °F 93% 29.73 in 2.5 mi NE 18.4 mph 25.3 mph 0.11 in Rain Light Rain
4:56 PM 39.0 °F 28.8 °F 36.0 °F 89% 29.73 in 2.5 mi NE 21.9 mph 26.5 mph 0.17 in Rain Light Rain
5:06 PM 39.0 °F 29.6 °F 36.0 °F 89% 29.71 in 4.0 mi NE 18.4 mph 26.5 mph 0.02 in Rain Light Rain
5:56 PM 37.9 °F 27.3 °F 36.0 °F 93% 29.70 in 5.0 mi NE 21.9 mph 31.1 mph 0.09 in Rain Light Rain
6:56 PM 37.9 °F 27.3 °F 35.1 °F 89% 29.71 in 7.0 mi NNE 21.9 mph 29.9 mph 0.09 in Rain Light Rain
7:56 PM 35.1 °F 24.8 °F 33.1 °F 92% 29.74 in 3.0 mi North 17.3 mph - 0.11 in Rain , Snow Light Rain
8:13 PM 34.0 °F 23.4 °F 32.0 °F 92% 29.74 in 2.5 mi North 17.3 mph 28.8 mph 0.02 in Snow Light Snow
8:56 PM 34.0 °F 22.4 °F 32.0 °F 92% 29.77 in 2.5 mi North 20.7 mph 29.9 mph 0.11 in Snow Light Snow
9:09 PM 34.0 °F 21.8 °F 32.0 °F 92% 29.76 in 3.0 mi North 23.0 mph 31.1 mph 0.01 in Snow Light Snow
9:56 PM 35.1 °F 25.5 °F 32.0 °F 89% 29.78 in 5.0 mi North 15.0 mph 26.5 mph 0.06 in Snow Light Snow
10:56 PM 35.1 °F 23.8 °F 32.0 °F 89% 29.78 in 2.0 mi NNW 20.7 mph 26.5 mph 0.06 in Snow Light Snow
11:34 PM 35.1 °F 23.5 °F 33.1 °F 92% 29.78 in 4.0 mi NNW 21.9 mph 28.8 mph 0.02 in Snow Light Snow
11:46 PM 36.0 °F 25.6 °F 33.1 °F 89% 29.78 in 6.0 mi NNW 18.4 mph - 0.02 in Snow Light Snow
11:56 PM 36.0 °F 25.6 °F 33.1 °F 89% 29.79 in 6.0 mi NNW 18.4 mph 29.9 mph 0.02 in Snow Light Snow